| time (UTC) | temp C | wind direction | speed KPH | gust KPH | rain 1hr cm | rain 24hr cm | rain mn cm | humidity % | barometer mb |
| 20260508080950 | 5 | 96 | 0.0 | 0.0 | 0.00 | 0.00 | 0.00 | 96 | 1010.7 |
| 20260508080449 | 5 | 81 | 0.0 | 0.0 | 0.00 | 0.00 | 0.00 | 96 | 1010.7 |
| 20260508075945 | 5 | 88 | 0.0 | 0.0 | 0.00 | 0.00 | 0.00 | 96 | 1010.8 |
| 20260508075442 | 5 | 94 | 0.0 | 0.0 | 0.00 | 0.00 | 0.00 | 96 | 1010.7 |
| 20260508074939 | 5 | 91 | 0.0 | 0.0 | 0.00 | 0.00 | 0.00 | 96 | 1010.5 |
| 20260508074437 | 5 | 95 | 0.0 | 0.0 | 0.00 | 0.00 | 0.00 | 96 | 1010.8 |
| 20260508073934 | 5 | 90 | 0.0 | 0.0 | 0.00 | 0.00 | 0.00 | 96 | 1010.8 |
| 20260508073431 | 5 | 90 | 0.0 | 0.0 | 0.00 | 0.00 | 0.00 | 96 | 1010.9 |
| 20260508072928 | 5 | 95 | 0.0 | 0.0 | 0.00 | 0.00 | 0.00 | 96 | 1010.9 |
| 20260508072424 | 5 | 96 | 0.0 | 0.0 | 0.00 | 0.00 | 0.00 | 96 | 1010.9 |
| 20260508071922 | 5 | 127 | 0.0 | 0.0 | 0.00 | 0.00 | 0.00 | 95 | 1011.0 |
| 20260508071420 | 5 | 91 | 0.0 | 0.0 | 0.00 | 0.00 | 0.00 | 95 | 1011.0 |
| 20260508070917 | 5 | 95 | 0.0 | 0.0 | 0.00 | 0.00 | 0.00 | 95 | 1011.1 |
| 20260508070415 | 5 | 100 | 0.0 | 0.0 | 0.00 | 0.00 | 0.00 | 95 | 1011.1 |
| 20260508065912 | 5 | 118 | 0.0 | 0.0 | 0.00 | 0.00 | 0.00 | 95 | 1010.9 |
| 20260508065410 | 5 | 100 | 0.0 | 0.0 | 0.00 | 0.00 | 0.00 | 94 | 1011.2 |
| 20260508064908 | 6 | 92 | 0.0 | 0.0 | 0.00 | 0.00 | 0.00 | 94 | 1011.1 |
| 20260508064405 | 6 | 91 | 0.0 | 0.0 | 0.00 | 0.00 | 0.00 | 93 | 1010.8 |
| 20260508063903 | 6 | 90 | 0.0 | 0.0 | 0.00 | 0.00 | 0.00 | 93 | 1011.2 |
| 20260508063401 | 6 | 88 | 0.0 | 0.0 | 0.00 | 0.00 | 0.00 | 93 | 1011.0 |
| 20260508062857 | 6 | 81 | 0.0 | 0.0 | 0.00 | 0.00 | 0.00 | 93 | 1010.8 |
| 20260508062355 | 6 | 94 | 0.0 | 0.0 | 0.00 | 0.00 | 0.00 | 92 | 1010.9 |
| 20260508061852 | 6 | 103 | 0.0 | 0.0 | 0.00 | 0.00 | 0.00 | 92 | 1010.9 |
| 20260508061349 | 6 | 97 | 0.0 | 0.0 | 0.00 | 0.00 | 0.00 | 91 | 1011.2 |
| 20260508060846 | 6 | 86 | 0.0 | 0.0 | 0.00 | 0.00 | 0.00 | 91 | 1010.9 |
| 20260508060344 | 6 | 93 | 0.0 | 0.0 | 0.00 | 0.00 | 0.00 | 90 | 1011.0 |
| 20260508055838 | 6 | 91 | 0.0 | 0.0 | 0.00 | 0.00 | 0.00 | 90 | 1011.1 |
| 20260508055336 | 7 | 90 | 0.0 | 0.0 | 0.00 | 0.00 | 0.00 | 89 | 1011.0 |
| 20260508054832 | 7 | 109 | 0.0 | 0.0 | 0.00 | 0.00 | 0.00 | 88 | 1010.7 |
| 20260508054330 | 7 | 98 | 0.0 | 0.0 | 0.00 | 0.00 | 0.00 | 88 | 1010.6 |
| 20260508053827 | 7 | 85 | 0.0 | 0.0 | 0.00 | 0.00 | 0.00 | 88 | 1010.9 |
| 20260508053324 | 7 | 90 | 0.0 | 0.0 | 0.00 | 0.00 | 0.00 | 88 | 1010.8 |
| 20260508052821 | 7 | 79 | 0.0 | 0.0 | 0.00 | 0.00 | 0.00 | 87 | 1010.6 |
| 20260508052319 | 7 | 103 | 0.0 | 0.0 | 0.00 | 0.00 | 0.00 | 87 | 1010.8 |
| 20260508051815 | 7 | 104 | 0.0 | 0.0 | 0.00 | 0.00 | 0.00 | 87 | 1010.6 |
| 20260508051310 | 7 | 110 | 0.0 | 0.0 | 0.00 | 0.00 | 0.00 | 87 | 1010.6 |
| 20260508050807 | 7 | 106 | 0.0 | 0.0 | 0.00 | 0.00 | 0.00 | 86 | 1010.7 |
| 20260508050304 | 7 | 100 | 0.0 | 0.0 | 0.00 | 0.00 | 0.00 | 86 | 1010.6 |
| 20260508045759 | 8 | 91 | 0.0 | 0.0 | 0.00 | 0.03 | 0.03 | 85 | 1010.5 |
| 20260508045257 | 8 | 92 | 0.0 | 0.0 | 0.00 | 0.03 | 0.03 | 84 | 1010.8 |
| 20260508044755 | 8 | 91 | 0.0 | 0.0 | 0.00 | 0.03 | 0.03 | 84 | 1010.6 |
| 20260508044251 | 8 | 91 | 0.0 | 0.0 | 0.00 | 0.03 | 0.03 | 83 | 1010.6 |
| 20260508043747 | 8 | 99 | 0.0 | 0.0 | 0.00 | 0.03 | 0.03 | 82 | 1010.6 |
| 20260508043245 | 8 | 104 | 0.0 | 0.0 | 0.00 | 0.03 | 0.03 | 81 | 1010.4 |
| 20260508042741 | 8 | 95 | 0.0 | 0.0 | 0.00 | 0.03 | 0.03 | 80 | 1010.5 |
| 20260508042239 | 8 | 92 | 0.0 | 0.0 | 0.00 | 0.03 | 0.03 | 80 | 1010.3 |
| 20260508041735 | 8 | 89 | 0.0 | 0.0 | 0.00 | 0.03 | 0.03 | 80 | 1010.4 |
| 20260508041232 | 8 | 96 | 0.0 | 0.0 | 0.00 | 0.03 | 0.03 | 79 | 1010.3 |
| 20260508040729 | 9 | 110 | 0.0 | 0.0 | 0.00 | 0.03 | 0.03 | 78 | 1010.4 |
| 20260508040226 | 9 | 107 | 0.0 | 1.6 | 0.00 | 0.03 | 0.03 | 77 | 1010.4 |
| 20260508035723 | 9 | 109 | 0.0 | 1.6 | 0.00 | 0.03 | 0.03 | 78 | 1010.5 |
| 20260508035221 | 8 | 107 | 0.0 | 0.0 | 0.00 | 0.03 | 0.03 | 78 | 1010.2 |
| 20260508034717 | 8 | 129 | 1.6 | 3.2 | 0.00 | 0.03 | 0.03 | 79 | 1010.0 |
| 20260508034215 | 8 | 101 | 0.0 | 0.0 | 0.00 | 0.03 | 0.03 | 81 | 1010.3 |
| 20260508033711 | 8 | 97 | 0.0 | 0.0 | 0.00 | 0.03 | 0.03 | 82 | 1010.2 |
| 20260508033210 | 8 | 99 | 0.0 | 0.0 | 0.00 | 0.03 | 0.03 | 81 | 1010.0 |
| 20260508032707 | 8 | 106 | 0.0 | 0.0 | 0.00 | 0.03 | 0.03 | 81 | 1009.9 |
| 20260508032204 | 8 | 103 | 0.0 | 0.0 | 0.00 | 0.03 | 0.03 | 78 | 1010.1 |
| 20260508031701 | 8 | 102 | 0.0 | 0.0 | 0.00 | 0.03 | 0.03 | 79 | 1009.9 |
| 20260508031157 | 8 | 93 | 0.0 | 0.0 | 0.00 | 0.03 | 0.03 | 80 | 1010.1 |
| 20260508030653 | 8 | 90 | 0.0 | 0.0 | 0.00 | 0.03 | 0.03 | 79 | 1010.0 |
| 20260508030151 | 9 | 81 | 0.0 | 1.6 | 0.00 | 0.03 | 0.03 | 77 | 1010.1 |
| 20260508025647 | 8 | 151 | 1.6 | 1.6 | 0.00 | 0.03 | 0.03 | 80 | 1010.0 |
| 20260508025144 | 8 | 103 | 0.0 | 0.0 | 0.00 | 0.03 | 0.03 | 81 | 1009.8 |
| 20260508024640 | 8 | 113 | 0.0 | 0.0 | 0.00 | 0.03 | 0.03 | 83 | 1010.0 |
| 20260508024138 | 8 | 105 | 0.0 | 0.0 | 0.00 | 0.03 | 0.03 | 82 | 1009.9 |
| 20260508023633 | 8 | 106 | 0.0 | 0.0 | 0.00 | 0.03 | 0.03 | 81 | 1009.8 |
| 20260508023132 | 8 | 108 | 0.0 | 0.0 | 0.00 | 0.03 | 0.03 | 81 | 1010.0 |
| 20260508022627 | 8 | 94 | 0.0 | 0.0 | 0.00 | 0.03 | 0.03 | 80 | 1010.0 |
| 20260508022124 | 9 | 94 | 0.0 | 0.0 | 0.00 | 0.03 | 0.03 | 79 | 1009.9 |
| 20260508021620 | 9 | 92 | 0.0 | 0.0 | 0.00 | 0.03 | 0.03 | 79 | 1009.8 |
| 20260508021116 | 9 | 92 | 0.0 | 0.0 | 0.00 | 0.03 | 0.03 | 79 | 1009.7 |
| 20260508020614 | 9 | 92 | 0.0 | 0.0 | 0.00 | 0.03 | 0.03 | 79 | 1009.6 |
| 20260508020111 | 9 | 95 | 0.0 | 0.0 | 0.00 | 0.03 | 0.03 | 78 | 1009.6 |
| 20260508015609 | 9 | 95 | 0.0 | 0.0 | 0.00 | 0.03 | 0.03 | 77 | 1009.5 |
| 20260508015105 | 9 | 95 | 0.0 | 0.0 | 0.00 | 0.03 | 0.03 | 77 | 1009.5 |
| 20260508014601 | 10 | 95 | 0.0 | 0.0 | 0.00 | 0.03 | 0.03 | 76 | 1009.3 |
| 20260508014058 | 10 | 96 | 0.0 | 0.0 | 0.00 | 0.03 | 0.03 | 75 | 1009.4 |
| 20260508013554 | 10 | 101 | 0.0 | 0.0 | 0.00 | 0.03 | 0.03 | 75 | 1009.2 |
| 20260508013051 | 10 | 95 | 0.0 | 0.0 | 0.00 | 0.03 | 0.03 | 75 | 1009.0 |
| 20260508012549 | 10 | 104 | 0.0 | 0.0 | 0.00 | 0.03 | 0.03 | 74 | 1009.2 |
| 20260508012046 | 10 | 104 | 0.0 | 0.0 | 0.00 | 0.03 | 0.03 | 72 | 1009.1 |
| 20260508011544 | 10 | 105 | 0.0 | 0.0 | 0.00 | 0.03 | 0.03 | 74 | 1009.1 |
| 20260508011041 | 10 | 113 | 0.0 | 0.0 | 0.00 | 0.03 | 0.03 | 74 | 1009.3 |
| 20260508010538 | 11 | 94 | 0.0 | 0.0 | 0.00 | 0.03 | 0.03 | 72 | 1009.1 |
| 20260508010035 | 11 | 94 | 0.0 | 0.0 | 0.00 | 0.03 | 0.03 | 71 | 1009.0 |
| 20260508005532 | 11 | 94 | 0.0 | 0.0 | 0.00 | 0.03 | 0.03 | 70 | 1009.1 |
| 20260508005029 | 11 | 94 | 0.0 | 0.0 | 0.00 | 0.03 | 0.03 | 68 | 1008.9 |
| 20260508004524 | 12 | 93 | 0.0 | 0.0 | 0.00 | 0.03 | 0.03 | 68 | 1008.8 |
| 20260508004021 | 12 | 92 | 0.0 | 0.0 | 0.00 | 0.03 | 0.03 | 67 | 1008.9 |
| 20260508003518 | 12 | 92 | 0.0 | 0.0 | 0.00 | 0.03 | 0.03 | 65 | 1008.9 |
| 20260508003016 | 13 | 92 | 0.0 | 0.0 | 0.00 | 0.03 | 0.03 | 65 | 1008.9 |
| 20260508002511 | 13 | 92 | 0.0 | 0.0 | 0.00 | 0.03 | 0.03 | 61 | 1009.0 |
| 20260508002009 | 13 | 92 | 0.0 | 0.0 | 0.00 | 0.03 | 0.03 | 63 | 1008.9 |
| 20260508001505 | 13 | 80 | 0.0 | 0.0 | 0.00 | 0.03 | 0.03 | 61 | 1008.9 |
| 20260508001001 | 13 | 80 | 0.0 | 0.0 | 0.00 | 0.03 | 0.03 | 60 | 1008.8 |
| 20260508000457 | 14 | 98 | 0.0 | 0.0 | 0.00 | 0.03 | 0.03 | 59 | 1009.0 |
| 20260507235954 | 14 | 102 | 1.6 | 3.2 | 0.00 | 0.03 | 0.03 | 58 | 1008.9 |
| 20260507235451 | 14 | 102 | 1.6 | 1.6 | 0.00 | 0.03 | 0.03 | 57 | 1008.8 |
| 20260507234949 | 14 | 111 | 1.6 | 3.2 | 0.00 | 0.03 | 0.03 | 59 | 1008.7 |
| 20260507234445 | 14 | 86 | 1.6 | 1.6 | 0.00 | 0.03 | 0.03 | 60 | 1008.8 |
| 20260507233941 | 14 | 167 | 1.6 | 1.6 | 0.00 | 0.03 | 0.03 | 59 | 1008.7 |
| 20260507233438 | 13 | 110 | 1.6 | 4.8 | 0.00 | 0.03 | 0.03 | 64 | 1008.9 |
| 20260507232937 | 13 | 69 | 1.6 | 1.6 | 0.00 | 0.03 | 0.03 | 63 | 1009.0 |
| 20260507232433 | 13 | 327 | 1.6 | 3.2 | 0.00 | 0.03 | 0.03 | 62 | 1008.9 |
| 20260507231930 | 13 | 62 | 0.0 | 3.2 | 0.00 | 0.03 | 0.03 | 63 | 1009.0 |
| 20260507231426 | 13 | 98 | 1.6 | 3.2 | 0.00 | 0.03 | 0.03 | 61 | 1008.8 |
| 20260507230923 | 13 | 280 | 3.2 | 3.2 | 0.00 | 0.03 | 0.03 | 62 | 1009.0 |
| 20260507230421 | 13 | 97 | 0.0 | 1.6 | 0.00 | 0.03 | 0.03 | 62 | 1009.2 |
| 20260507225921 | 13 | 95 | 0.0 | 1.6 | 0.00 | 0.03 | 0.03 | 64 | 1009.3 |
| 20260507225417 | 13 | 138 | 1.6 | 1.6 | 0.00 | 0.03 | 0.03 | 67 | 1009.3 |
| 20260507224913 | 13 | 355 | 1.6 | 3.2 | 0.00 | 0.03 | 0.03 | 68 | 1009.6 |
| 20260507224409 | 13 | 96 | 0.0 | 1.6 | 0.00 | 0.03 | 0.03 | 72 | 1009.7 |
| 20260507223906 | 13 | 61 | 0.0 | 1.6 | 0.00 | 0.03 | 0.03 | 72 | 1009.3 |
| 20260507223402 | 12 | 92 | 0.0 | 1.6 | 0.00 | 0.03 | 0.03 | 71 | 1009.6 |
| 20260507222859 | 13 | 73 | 1.6 | 1.6 | 0.00 | 0.03 | 0.03 | 70 | 1009.7 |
| 20260507222356 | 13 | 110 | 0.0 | 1.6 | 0.00 | 0.03 | 0.03 | 70 | 1009.6 |
| 20260507221853 | 13 | 91 | 0.0 | 0.0 | 0.00 | 0.03 | 0.03 | 70 | 1009.4 |
| 20260507221349 | 12 | 85 | 0.0 | 0.0 | 0.00 | 0.03 | 0.03 | 71 | 1009.6 |
| 20260507220845 | 13 | 81 | 0.0 | 1.6 | 0.00 | 0.03 | 0.03 | 69 | 1009.6 |
| 20260507220344 | 13 | 90 | 0.0 | 1.6 | 0.00 | 0.03 | 0.03 | 74 | 1009.8 |
| 20260507215839 | 12 | 97 | 0.0 | 1.6 | 0.00 | 0.03 | 0.03 | 75 | 1009.8 |
| 20260507215337 | 12 | 104 | 1.6 | 3.2 | 0.18 | 0.03 | 0.03 | 78 | 1009.5 |
| 20260507214834 | 11 | 75 | 1.6 | 9.7 | 0.18 | 0.03 | 0.03 | 76 | 1009.8 |
| 20260507214332 | 12 | 64 | 4.8 | 4.8 | 0.00 | 0.00 | 0.00 | 68 | 1009.9 |
| 20260507213826 | 12 | 43 | 3.2 | 9.7 | 0.00 | 0.00 | 0.00 | 60 | 1009.5 |
| 20260507213323 | 13 | 171 | 3.2 | 4.8 | 0.00 | 0.00 | 0.00 | 59 | 1009.5 |
| 20260507212820 | 14 | 117 | 4.8 | 4.8 | 0.00 | 0.00 | 0.00 | 60 | 1009.4 |
| 20260507212316 | 14 | 322 | 4.8 | 8.0 | 0.00 | 0.00 | 0.00 | 57 | 1009.2 |
| 20260507211813 | 15 | 206 | 3.2 | 12.9 | 0.00 | 0.00 | 0.00 | 55 | 1009.1 |
| 20260507211310 | 15 | 145 | 6.4 | 12.9 | 0.00 | 0.00 | 0.00 | 53 | 1009.2 |
| 20260507210806 | 15 | 262 | 4.8 | 9.7 | 0.00 | 0.00 | 0.00 | 51 | 1009.0 |
| 20260507210303 | 15 | 246 | 6.4 | 14.5 | 0.00 | 0.00 | 0.00 | 51 | 1008.9 |
| 20260507205759 | 16 | 38 | 3.2 | 14.5 | 0.00 | 0.00 | 0.00 | 51 | 1009.1 |
| 20260507205257 | 16 | 207 | 4.8 | 11.3 | 0.00 | 0.00 | 0.00 | 51 | 1009.2 |
| 20260507204752 | 16 | 287 | 6.4 | 11.3 | 0.00 | 0.00 | 0.00 | 48 | 1009.3 |
| 20260507204251 | 16 | 211 | 6.4 | 17.7 | 0.00 | 0.00 | 0.00 | 50 | 1009.2 |
| 20260507203748 | 16 | 163 | 4.8 | 12.9 | 0.00 | 0.00 | 0.00 | 50 | 1009.5 |
| 20260507203245 | 16 | 117 | 3.2 | 16.1 | 0.00 | 0.00 | 0.00 | 53 | 1009.4 |
| 20260507202742 | 16 | 183 | 4.8 | 16.1 | 0.00 | 0.00 | 0.00 | 54 | 1009.4 |
| 20260507202238 | 15 | 184 | 6.4 | 17.7 | 0.00 | 0.00 | 0.00 | 54 | 1009.6 |
| 20260507201732 | 15 | 308 | 6.4 | 11.3 | 0.00 | 0.00 | 0.00 | 55 | 1009.7 |
| 20260507201230 | 15 | 189 | 8.0 | 11.3 | 0.00 | 0.00 | 0.00 | 56 | 1009.7 |
| 20260507200726 | 15 | 266 | 6.4 | 22.5 | 0.00 | 0.00 | 0.00 | 53 | 1009.9 |
| 20260507200222 | 15 | 165 | 8.0 | 20.9 | 0.00 | 0.00 | 0.00 | 54 | 1010.0 |
| 20260507195719 | 15 | 121 | 9.7 | 14.5 | 0.00 | 0.00 | 0.00 | 54 | 1009.8 |
| 20260507195216 | 15 | 156 | 6.4 | 14.5 | 0.00 | 0.00 | 0.00 | 57 | 1010.0 |
| 20260507194713 | 15 | 186 | 8.0 | 12.9 | 0.00 | 0.00 | 0.00 | 55 | 1010.1 |
| 20260507194209 | 15 | 50 | 3.2 | 9.7 | 0.00 | 0.00 | 0.00 | 57 | 1010.4 |
| 20260507193706 | 15 | 204 | 4.8 | 12.9 | 0.00 | 0.00 | 0.00 | 57 | 1010.6 |
| 20260507193203 | 15 | 167 | 8.0 | 16.1 | 0.00 | 0.00 | 0.00 | 57 | 1010.5 |
| 20260507192658 | 15 | 171 | 6.4 | 16.1 | 0.00 | 0.00 | 0.00 | 56 | 1010.5 |
| 20260507192156 | 15 | 239 | 8.0 | 20.9 | 0.00 | 0.00 | 0.00 | 57 | 1010.8 |
| 20260507191651 | 14 | 178 | 6.4 | 24.1 | 0.00 | 0.00 | 0.00 | 58 | 1010.9 |
| 20260507191148 | 13 | 138 | 14.5 | 22.5 | 0.00 | 0.00 | 0.00 | 59 | 1010.8 |
| 20260507190645 | 13 | 163 | 8.0 | 24.1 | 0.00 | 0.00 | 0.00 | 57 | 1010.7 |
| 20260507190144 | 13 | 93 | 4.8 | 16.1 | 0.00 | 0.00 | 0.00 | 57 | 1011.1 |
| 20260507185642 | 13 | 285 | 9.7 | 22.5 | 0.00 | 0.00 | 0.00 | 57 | 1011.2 |
| 20260507185138 | 13 | 174 | 8.0 | 16.1 | 0.00 | 0.00 | 0.00 | 57 | 1011.2 |
| 20260507184636 | 15 | 139 | 3.2 | 20.9 | 0.00 | 0.00 | 0.00 | 56 | 1011.1 |
| 20260507184134 | 13 | 323 | 9.7 | 22.5 | 0.00 | 0.00 | 0.00 | 54 | 1011.1 |
| 20260507183630 | 15 | 236 | 8.0 | 20.9 | 0.00 | 0.00 | 0.00 | 51 | 1011.1 |
| 20260507183127 | 15 | 88 | 4.8 | 14.5 | 0.00 | 0.00 | 0.00 | 49 | 1011.3 |
| 20260507182624 | 15 | 247 | 9.7 | 20.9 | 0.00 | 0.00 | 0.00 | 48 | 1011.2 |
| 20260507182120 | 15 | 264 | 8.0 | 17.7 | 0.00 | 0.00 | 0.00 | 46 | 1011.2 |
| 20260507181616 | 15 | 269 | 4.8 | 12.9 | 0.00 | 0.00 | 0.00 | 46 | 1011.4 |
| 20260507181113 | 15 | 265 | 9.7 | 17.7 | 0.00 | 0.00 | 0.00 | 45 | 1011.3 |
| 20260507180609 | 15 | 162 | 3.2 | 14.5 | 0.00 | 0.00 | 0.00 | 48 | 1011.3 |
| 20260507180107 | 15 | 255 | 9.7 | 14.5 | 0.00 | 0.00 | 0.00 | 46 | 1011.3 |
| 20260507175602 | 15 | 263 | 4.8 | 14.5 | 0.00 | 0.00 | 0.00 | 48 | 1011.4 |
| 20260507175100 | 15 | 257 | 4.8 | 22.5 | 0.00 | 0.00 | 0.00 | 45 | 1011.6 |
| 20260507174557 | 15 | 264 | 11.3 | 17.7 | 0.00 | 0.00 | 0.00 | 41 | 1011.4 |
| 20260507174055 | 15 | 141 | 9.7 | 14.5 | 0.00 | 0.00 | 0.00 | 43 | 1011.8 |
| 20260507173552 | 15 | 245 | 8.0 | 14.5 | 0.00 | 0.00 | 0.00 | 43 | 1011.5 |
| 20260507173049 | 16 | 143 | 8.0 | 14.5 | 0.00 | 0.00 | 0.00 | 41 | 1011.8 |
| 20260507172544 | 15 | 176 | 4.8 | 9.7 | 0.00 | 0.00 | 0.00 | 43 | 1011.6 |
| 20260507172042 | 15 | 307 | 4.8 | 17.7 | 0.00 | 0.00 | 0.00 | 43 | 1012.1 |
| 20260507171537 | 15 | 111 | 3.2 | 4.8 | 0.00 | 0.00 | 0.00 | 46 | 1012.4 |
| 20260507171034 | 14 | 219 | 4.8 | 8.0 | 0.00 | 0.00 | 0.00 | 44 | 1012.3 |
| 20260507170531 | 14 | 223 | 4.8 | 9.7 | 0.00 | 0.00 | 0.00 | 45 | 1012.8 |
| 20260507170028 | 14 | 233 | 6.4 | 14.5 | 0.00 | 0.00 | 0.00 | 44 | 1012.5 |
| 20260507165524 | 14 | 291 | 6.4 | 9.7 | 0.00 | 0.00 | 0.00 | 44 | 1012.7 |
| 20260507165020 | 13 | 129 | 3.2 | 9.7 | 0.00 | 0.00 | 0.00 | 45 | 1012.7 |
| 20260507164517 | 13 | 182 | 3.2 | 11.3 | 0.00 | 0.00 | 0.00 | 46 | 1012.5 |
| 20260507164014 | 13 | 283 | 4.8 | 12.9 | 0.00 | 0.00 | 0.00 | 45 | 1012.7 |
| 20260507163511 | 14 | 166 | 6.4 | 9.7 | 0.00 | 0.00 | 0.00 | 44 | 1012.9 |
| 20260507163009 | 14 | 100 | 1.6 | 3.2 | 0.00 | 0.00 | 0.00 | 45 | 1012.9 |
| 20260507162503 | 14 | 321 | 4.8 | 9.7 | 0.00 | 0.00 | 0.00 | 43 | 1012.8 |
| 20260507162001 | 13 | 260 | 4.8 | 4.8 | 0.00 | 0.00 | 0.00 | 43 | 1013.1 |
| 20260507161456 | 13 | 197 | 4.8 | 11.3 | 0.00 | 0.00 | 0.00 | 42 | 1013.4 |
| 20260507160954 | 13 | 162 | 6.4 | 9.7 | 0.00 | 0.00 | 0.00 | 44 | 1013.5 |
| 20260507160449 | 13 | 126 | 4.8 | 14.5 | 0.00 | 0.00 | 0.00 | 44 | 1013.4 |
| 20260507155945 | 13 | 160 | 6.4 | 12.9 | 0.00 | 0.00 | 0.00 | 41 | 1013.5 |
| 20260507155442 | 13 | 191 | 4.8 | 8.0 | 0.00 | 0.00 | 0.00 | 44 | 1013.3 |
| 20260507154939 | 13 | 95 | 1.6 | 8.0 | 0.00 | 0.00 | 0.00 | 44 | 1013.7 |
| 20260507154435 | 13 | 261 | 4.8 | 14.5 | 0.00 | 0.00 | 0.00 | 44 | 1013.5 |
| 20260507153933 | 12 | 186 | 1.6 | 4.8 | 0.00 | 0.00 | 0.00 | 45 | 1013.4 |
| 20260507153429 | 12 | 207 | 6.4 | 8.0 | 0.00 | 0.00 | 0.00 | 47 | 1013.7 |
| 20260507152925 | 12 | 156 | 1.6 | 4.8 | 0.00 | 0.00 | 0.00 | 42 | 1013.8 |
| 20260507152422 | 12 | 103 | 0.0 | 4.8 | 0.00 | 0.00 | 0.00 | 45 | 1013.8 |
| 20260507151918 | 13 | 236 | 4.8 | 8.0 | 0.00 | 0.00 | 0.00 | 44 | 1014.0 |
| 20260507151415 | 12 | 100 | 0.0 | 4.8 | 0.00 | 0.00 | 0.00 | 44 | 1013.9 |
| 20260507150912 | 12 | 206 | 1.6 | 4.8 | 0.00 | 0.00 | 0.00 | 48 | 1014.1 |
| 20260507150408 | 12 | 112 | 1.6 | 3.2 | 0.00 | 0.00 | 0.00 | 49 | 1014.2 |
| 20260507145905 | 11 | 182 | 1.6 | 3.2 | 0.00 | 0.00 | 0.00 | 47 | 1014.2 |
| 20260507145401 | 11 | 26 | 1.6 | 4.8 | 0.00 | 0.00 | 0.00 | 46 | 1014.2 |
| 20260507144858 | 11 | 152 | 6.4 | 9.7 | 0.00 | 0.00 | 0.00 | 48 | 1014.5 |
| 20260507144355 | 11 | 114 | 3.2 | 4.8 | 0.00 | 0.00 | 0.00 | 49 | 1014.5 |
| 20260507143852 | 11 | 134 | 1.6 | 4.8 | 0.00 | 0.00 | 0.00 | 49 | 1014.5 |
| 20260507143349 | 11 | 204 | 4.8 | 9.7 | 0.00 | 0.00 | 0.00 | 51 | 1014.7 |
| 20260507142845 | 11 | 263 | 3.2 | 4.8 | 0.00 | 0.00 | 0.00 | 51 | 1014.8 |
| 20260507142341 | 10 | 225 | 3.2 | 4.8 | 0.00 | 0.00 | 0.00 | 52 | 1014.6 |
| 20260507141838 | 10 | 171 | 4.8 | 9.7 | 0.00 | 0.00 | 0.00 | 51 | 1014.7 |
| 20260507141335 | 10 | 147 | 6.4 | 9.7 | 0.00 | 0.00 | 0.00 | 50 | 1015.0 |
| 20260507140831 | 10 | 165 | 3.2 | 4.8 | 0.00 | 0.00 | 0.00 | 54 | 1014.9 |
| 20260507140328 | 10 | 186 | 3.2 | 4.8 | 0.00 | 0.00 | 0.00 | 52 | 1014.6 |
| 20260507135826 | 10 | 100 | 3.2 | 4.8 | 0.00 | 0.00 | 0.00 | 52 | 1014.8 |
| 20260507135323 | 8 | 163 | 4.8 | 9.7 | 0.00 | 0.00 | 0.00 | 53 | 1014.7 |
| 20260507134820 | 8 | 173 | 1.6 | 4.8 | 0.00 | 0.00 | 0.00 | 54 | 1014.8 |
| 20260507134316 | 8 | 98 | 0.0 | 1.6 | 0.00 | 0.00 | 0.00 | 57 | 1014.8 |
| 20260507133812 | 8 | 156 | 3.2 | 4.8 | 0.00 | 0.00 | 0.00 | 55 | 1015.1 |
| 20260507133308 | 8 | 174 | 4.8 | 8.0 | 0.00 | 0.00 | 0.00 | 55 | 1014.8 |
| 20260507132806 | 8 | 110 | 1.6 | 8.0 | 0.00 | 0.00 | 0.00 | 60 | 1014.9 |
| 20260507132306 | 7 | 142 | 1.6 | 3.2 | 0.00 | 0.00 | 0.00 | 59 | 1014.9 |
| 20260507131800 | 7 | 79 | 1.6 | 3.2 | 0.00 | 0.00 | 0.00 | 66 | 1014.8 |
| 20260507131256 | 7 | 95 | 1.6 | 1.6 | 0.00 | 0.00 | 0.00 | 70 | 1014.9 |
| 20260507130753 | 6 | 115 | 0.0 | 1.6 | 0.00 | 0.00 | 0.00 | 70 | 1014.9 |
| 20260507130251 | 6 | 190 | 1.6 | 3.2 | 0.00 | 0.00 | 0.00 | 72 | 1015.2 |
| 20260507125749 | 6 | 88 | 0.0 | 1.6 | 0.00 | 0.00 | 0.00 | 73 | 1015.2 |
| 20260507125247 | 5 | 46 | 1.6 | 3.2 | 0.00 | 0.00 | 0.00 | 73 | 1015.1 |
| 20260507124743 | 5 | 117 | 0.0 | 1.6 | 0.00 | 0.00 | 0.00 | 71 | 1015.0 |
| 20260507124240 | 5 | 101 | 0.0 | 0.0 | 0.00 | 0.00 | 0.00 | 74 | 1015.3 |
| 20260507123739 | 4 | 107 | 0.0 | 0.0 | 0.00 | 0.00 | 0.00 | 75 | 1015.1 |
| 20260507123236 | 4 | 147 | 0.0 | 0.0 | 0.00 | 0.00 | 0.00 | 77 | 1015.1 |
| 20260507122731 | 3 | 81 | 0.0 | 0.0 | 0.00 | 0.00 | 0.00 | 78 | 1015.2 |
| 20260507122227 | 3 | 98 | 0.0 | 0.0 | 0.00 | 0.00 | 0.00 | 79 | 1015.0 |
| 20260507121723 | 3 | 107 | 0.0 | 0.0 | 0.00 | 0.00 | 0.00 | 80 | 1014.6 |
| 20260507121219 | 2 | 102 | 0.0 | 0.0 | 0.00 | 0.00 | 0.00 | 83 | 1014.8 |
| 20260507120715 | 2 | 89 | 0.0 | 0.0 | 0.00 | 0.00 | 0.00 | 87 | 1014.7 |
| 20260507120212 | 2 | 97 | 0.0 | 0.0 | 0.00 | 0.00 | 0.00 | 89 | 1014.7 |
| 20260507115708 | 2 | 96 | 0.0 | 0.0 | 0.00 | 0.00 | 0.00 | 89 | 1014.6 |
| 20260507115204 | 2 | 95 | 0.0 | 0.0 | 0.00 | 0.00 | 0.00 | 89 | 1014.6 |
| 20260507114700 | 2 | 98 | 0.0 | 0.0 | 0.00 | 0.00 | 0.00 | 90 | 1014.9 |
| 20260507114157 | 1 | 97 | 0.0 | 0.0 | 0.00 | 0.00 | 0.00 | 92 | 1014.6 |
| 20260507113655 | 1 | 98 | 0.0 | 0.0 | 0.00 | 0.00 | 0.00 | 93 | 1014.8 |
| 20260507113151 | 0 | 97 | 0.0 | 0.0 | 0.00 | 0.00 | 0.00 | 95 | 1014.7 |
| 20260507112649 | 0 | 99 | 0.0 | 0.0 | 0.00 | 0.00 | 0.00 | 95 | 1014.7 |
| 20260507112145 | 0 | 97 | 0.0 | 0.0 | 0.00 | 0.00 | 0.00 | 95 | 1014.8 |
| 20260507111643 | 0 | 97 | 0.0 | 0.0 | 0.00 | 0.00 | 0.00 | 95 | 1014.6 |
| 20260507111139 | 0 | 97 | 0.0 | 0.0 | 0.00 | 0.00 | 0.00 | 94 | 1014.6 |
| 20260507110636 | 0 | 97 | 0.0 | 0.0 | 0.00 | 0.00 | 0.00 | 94 | 1014.8 |
| 20260507110133 | 0 | 98 | 0.0 | 0.0 | 0.00 | 0.00 | 0.00 | 94 | 1014.7 |
| 20260507105630 | 0 | 98 | 0.0 | 0.0 | 0.00 | 0.00 | 0.00 | 94 | 1014.6 |
| 20260507105125 | 0 | 99 | 0.0 | 0.0 | 0.00 | 0.00 | 0.00 | 94 | 1014.7 |
| 20260507104623 | 0 | 99 | 0.0 | 0.0 | 0.00 | 0.00 | 0.00 | 93 | 1014.7 |
| 20260507104119 | 0 | 99 | 0.0 | 0.0 | 0.00 | 0.00 | 0.00 | 93 | 1014.7 |
| 20260507103615 | 0 | 99 | 0.0 | 0.0 | 0.00 | 0.00 | 0.00 | 94 | 1014.5 |
| 20260507103112 | 0 | 97 | 0.0 | 0.0 | 0.00 | 0.00 | 0.00 | 94 | 1014.8 |
| 20260507102609 | 0 | 96 | 0.0 | 0.0 | 0.00 | 0.00 | 0.00 | 94 | 1014.7 |
| 20260507102105 | 0 | 93 | 0.0 | 0.0 | 0.00 | 0.00 | 0.00 | 94 | 1014.6 |
| 20260507101601 | 0 | 91 | 0.0 | 0.0 | 0.00 | 0.00 | 0.00 | 94 | 1014.8 |
| 20260507101057 | 0 | 97 | 0.0 | 0.0 | 0.00 | 0.00 | 0.00 | 94 | 1014.8 |
| 20260507100554 | 0 | 99 | 0.0 | 0.0 | 0.00 | 0.00 | 0.00 | 94 | 1014.6 |
| 20260507100053 | 0 | 97 | 0.0 | 0.0 | 0.00 | 0.00 | 0.00 | 94 | 1014.5 |
| 20260507095550 | 0 | 97 | 0.0 | 0.0 | 0.00 | 0.00 | 0.00 | 94 | 1014.7 |
| 20260507095047 | 0 | 97 | 0.0 | 0.0 | 0.00 | 0.00 | 0.00 | 94 | 1014.4 |
| 20260507094543 | 0 | 99 | 0.0 | 0.0 | 0.00 | 0.00 | 0.00 | 94 | 1014.9 |
| 20260507094040 | 0 | 100 | 0.0 | 0.0 | 0.00 | 0.00 | 0.00 | 94 | 1014.8 |
| 20260507093537 | 0 | 102 | 0.0 | 0.0 | 0.00 | 0.00 | 0.00 | 94 | 1014.8 |
| 20260507093036 | 0 | 99 | 0.0 | 0.0 | 0.00 | 0.00 | 0.00 | 94 | 1014.7 |
| 20260507092532 | 0 | 99 | 0.0 | 0.0 | 0.00 | 0.00 | 0.00 | 94 | 1014.7 |
| 20260507092029 | 0 | 99 | 0.0 | 0.0 | 0.00 | 0.00 | 0.00 | 94 | 1014.8 |
| 20260507091526 | 0 | 102 | 0.0 | 0.0 | 0.00 | 0.00 | 0.00 | 94 | 1014.6 |
| 20260507091022 | 0 | 102 | 0.0 | 0.0 | 0.00 | 0.00 | 0.00 | 94 | 1014.6 |
| 20260507090517 | 0 | 100 | 0.0 | 0.0 | 0.00 | 0.00 | 0.00 | 94 | 1014.8 |
| 20260507090015 | 0 | 98 | 0.0 | 0.0 | 0.00 | 0.00 | 0.00 | 94 | 1014.8 |
| 20260507085512 | 0 | 101 | 0.0 | 0.0 | 0.00 | 0.00 | 0.00 | 94 | 1014.9 |
| 20260507085008 | 0 | 101 | 0.0 | 0.0 | 0.00 | 0.00 | 0.00 | 94 | 1014.8 |
| 20260507084505 | 0 | 100 | 0.0 | 0.0 | 0.00 | 0.00 | 0.00 | 94 | 1014.9 |
| 20260507084002 | 0 | 99 | 0.0 | 0.0 | 0.00 | 0.00 | 0.00 | 94 | 1014.6 |
| 20260507083458 | 0 | 99 | 0.0 | 0.0 | 0.00 | 0.00 | 0.00 | 94 | 1014.7 |
| 20260507082955 | 0 | 99 | 0.0 | 0.0 | 0.00 | 0.00 | 0.00 | 94 | 1014.6 |
| 20260507082451 | 0 | 97 | 0.0 | 0.0 | 0.00 | 0.00 | 0.00 | 94 | 1014.6 |
| 20260507081948 | 0 | 97 | 0.0 | 0.0 | 0.00 | 0.00 | 0.00 | 94 | 1014.7 |
| 20260507081444 | 0 | 98 | 0.0 | 0.0 | 0.00 | 0.00 | 0.00 | 94 | 1014.6 |